星链-3678 (STARLINK-3678 )

导读

STARLINK-3678是美国太空探索技术公司星链星座的一颗卫星,于2022年3月19日发射入轨。星链项目旨在搭建全球卫星互联网通信网络,该卫星作为星座组网节点,承担着为全球用户提供低延迟、广覆盖的宽带互联网接入服务的任务,依托低轨轨道优势助力全球通信覆盖延伸。

基本信息
目录编号:
52121
目录名称:
STARLINK-3678
国际标识:
2022-029AK
轨道中心:
EARTH
卫星名称:
星链-3678
卫星全名:
星链-3678 (STARLINK-3678 )
卫星状态:
在轨 (已飞行1549 天)
发射日期:
2022-03-19 UTC
国别 :
美国 (US)
星等 :
--
轨道信息
数据来源 国际轨道数据 AOE轨道数据
星历时间 2026-06-15T03:24:43+0800
12小时前
查看轨道信息
2026-06-15T08:00:00+0800
7小时前
查看轨道信息
半长轴 6917.92km 6917.879km
偏心率 0.0001527 0.0001611
轨道倾角 53.161° 53.160°
近地点辐角 92.262° 80.364°
升交点赤经 353.054° 352.195°
平近点角 267.854° 238.721°
近地点 538.726km 538.627km
远地点 540.84km 540.857km
周期 95.438分钟 95.438分钟
每日圈数 15.088271 15.088405
详细信息
固有亮度:
5
最大亮度:
2.5
卫星平台:
Starlink v1.5
覆盖范围:
全球
运营商:
太空探索技术公司
运营商所在国:
美国
制造商(研发单位):
太空探索技术公司
制造商所在国:
美国
使用方式:
暂无
卫星简介
星链(Starlink)计划是由太空探索技术公司(SpaceX)提出的一个巨型低轨卫星互联网星座项目,计划在2019年至2024年间在太空搭建由约1.2万颗卫星组成的“星链”网络,其中1584颗将部署在地球上空550千米处的近地轨道,并从2020年开始工作。该卫星仍在工作。
2D轨道图
3D轨道图
轨道高度分析图
轨道倾角分析图
轨道综合分析图
查看轨道综合分析图